Location: Olsztyn
(53.7767°N, 20.4765°E)
Time: 20:55:59
(UTC+02:00)

Envisat - Pass Details

Date: 27 February 2024
Orbit: 762 x 764 km, 98.3° (Epoch: 21 April)

Event Time Altitude Azimuth Distance (km) Brightness Sun altitude
Rises 04:50:31 0° 8° (N) 3,246 6.5 -15.8°
Reaches altitude 10° 04:53:14 10° 355° (N) 2,315 5.5 -15.4°
Maximum altitude 04:57:10 23° 304° (NW) 1,588 4.2 -14.8°
Enters shadow 04:58:27 21° 283° (WNW) 1,678 4.2 -14.6°
